Rochester, NH

12:52 PM EST on February 08, 2016 (GMT -0500)
Skyhaven

Weather History for KDAW - April, 2013

Change the Weather History Date:

Monday, April 15, 2013

  Actual Average (KSFM) Record (KSFM)
Temperature  
Mean Temperature 41 °F -  
Max Temperature 55 °F 54 °F 82 °F (2003)
Min Temperature 28 °F 31 °F 19 °F (1997)
Degree Days  
Heating Degree Days 24    
Moisture  
Dew Point 31 °F    
Average Humidity 66    
Maximum Humidity 89    
Minimum Humidity 37    
Precipitation  
Precipitation 0.00 in - - ()
Sea Level Pressure  
Sea Level Pressure 30.33 in    
Wind  
Wind Speed 5 mph (SW)    
Max Wind Speed 12 mph    
Max Gust Speed 17 mph    
Visibility 10 miles    
Events      
Averages and records for this station are not official NWS values.
T = Trace of Precipitation, MM = Missing Value Source: NWS Daily Summary

Daily Weather History Graph

Daily Weather History Graph

Search for Another Location

Airport or City:

Trip Planner

Search our weather history database for the weather conditions in past years. The results will help you decide how hot, cold, wet, or windy it might be!

Date:

Astronomy

Apr. 15, 2013 Rise Set
Actual Time 6:01 AM EDT 7:26 PM EDT
Civil Twilight 5:31 AM EDT 7:56 PM EDT
Nautical Twilight 4:55 AM EDT 8:32 PM EDT
Astronomical Twilight 4:17 AM EDT 9:10 PM EDT
Moon 9:19 AM EDT (4/15) No Moon Set
Length of Visible Light 14h 25m
Length of Day
13h 25m
Waxing Crescent, 24% of the Moon is Illuminated
Apr 15
Waxing Crescent
Apr 18
First Quarter
Apr 25
Full
May 2
Last Quarter
May 9
New

Hourly Weather History & Observations

Time (EDT) Temp. Windchill Dew Point Humidity Pressure Visibility Wind Dir Wind Speed Gust Speed Precip Events Conditions
1:51 AM 33.1 °F 28.7 °F 28.0 °F 82% 30.22 in 10.0 mi NW 4.6 mph - N/A   Clear
2:51 AM 30.9 °F 25.2 °F 27.0 °F 85% 30.22 in 10.0 mi NW 5.8 mph - N/A   Clear
3:51 AM 32.0 °F 26.4 °F 28.0 °F 85% 30.24 in 10.0 mi NW 5.8 mph - N/A   Clear
4:51 AM 30.0 °F 25.2 °F 27.0 °F 88% 30.26 in 10.0 mi NNW 4.6 mph - N/A   Clear
5:51 AM 28.9 °F 22.8 °F 26.1 °F 89% 30.28 in 10.0 mi NNW 5.8 mph - N/A   Clear
6:51 AM 32.0 °F 27.5 °F 28.9 °F 88% 30.32 in 10.0 mi NW 4.6 mph - N/A   Clear
7:51 AM 39.0 °F 34.8 °F 30.9 °F 73% 30.34 in 10.0 mi NW 5.8 mph - N/A   Clear
8:51 AM 45.0 °F 43.5 °F 30.9 °F 58% 30.35 in 10.0 mi North 3.5 mph - N/A   Clear
9:51 AM 48.0 °F - 28.0 °F 46% 30.35 in 10.0 mi Calm Calm - N/A   Clear
10:51 AM 50.0 °F - 28.0 °F 43% 30.36 in 10.0 mi SSE 5.8 mph - N/A   Clear
11:51 AM 52.0 °F - 26.1 °F 37% 30.35 in 10.0 mi West 4.6 mph - N/A   Mostly Cloudy
12:51 PM 54.0 °F - 28.0 °F 37% 30.33 in 10.0 mi Variable 3.5 mph - N/A   Partly Cloudy
1:51 PM 53.1 °F - 30.9 °F 43% 30.33 in 10.0 mi SE 11.5 mph 17.3 mph N/A   Clear
2:51 PM 53.1 °F - 30.9 °F 43% 30.34 in 10.0 mi South 10.4 mph 16.1 mph N/A   Clear
3:51 PM 50.0 °F - 32.0 °F 50% 30.32 in 10.0 mi SSE 11.5 mph - N/A   Clear
4:51 PM 48.9 °F - 30.9 °F 50% 30.32 in 10.0 mi SSE 8.1 mph - N/A   Clear
5:51 PM 48.9 °F - 30.9 °F 50% 30.34 in 10.0 mi SE 9.2 mph 16.1 mph N/A   Clear
6:51 PM 46.0 °F 43.9 °F 34.0 °F 63% 30.35 in 10.0 mi SSE 4.6 mph - N/A   Clear
7:51 PM 43.0 °F 39.5 °F 34.0 °F 71% 30.38 in 10.0 mi SE 5.8 mph - N/A   Clear
8:51 PM 41.0 °F 39.0 °F 36.0 °F 82% 30.38 in 10.0 mi SE 3.5 mph - N/A   Clear
9:51 PM 39.9 °F - 36.0 °F 86% 30.38 in 10.0 mi Calm Calm - N/A   Clear
10:51 PM 39.0 °F - 36.0 °F 89% 30.37 in 10.0 mi Calm Calm - N/A   Clear
11:51 PM 37.9 °F - 35.1 °F 89% 30.38 in 10.0 mi Calm Calm - N/A   Clear